GW4954 Weather Reports


time (UTC)temp
C
wind
direction
speed
KPH
gust
KPH
rain 1hr
cm
rain 24hr
cm
rain mn
cm
humidity
%
barometer
mb
20260508005226 10 27 0.0 1.6 0.00 0.00 0.00 46 1009.6
20260508004721 10 38 1.6 3.2 0.00 0.00 0.00 45 1009.6
20260508004218 10 25 0.0 1.6 0.00 0.00 0.00 46 1009.8
20260508003714 10 21 0.0 0.0 0.00 0.00 0.00 46 1009.5
20260508003212 10 333 0.0 0.0 0.00 0.00 0.00 46 1009.6
20260508002708 10 25 0.0 1.6 0.00 0.00 0.00 45 1009.5
20260508002206 10 71 0.0 0.0 0.00 0.00 0.00 46 1009.6
20260508001701 10 14 0.0 0.0 0.00 0.00 0.00 45 1009.3
20260508001157 10 21 0.0 1.6 0.00 0.00 0.00 45 1009.5
20260508000654 10 34 0.0 1.6 0.00 0.00 0.00 45 1009.4
20260508000151 10 24 0.0 1.6 0.00 0.00 0.00 44 1009.5
20260507235647 10 24 0.0 1.6 0.00 0.00 0.00 43 1009.3
20260507235145 10 29 0.0 6.4 0.00 0.00 0.00 43 1009.4
20260507234642 10 355 0.0 1.6 0.00 0.00 0.00 43 1009.1
20260507234138 10 27 1.6 6.4 0.00 0.00 0.00 42 1009.3
20260507233635 10 16 0.0 1.6 0.00 0.00 0.00 42 1009.4
20260507233134 10 25 0.0 1.6 0.00 0.00 0.00 42 1009.2
20260507232629 10 357 1.6 4.8 0.00 0.00 0.00 41 1009.2
20260507232127 10 26 0.0 9.7 0.00 0.00 0.00 41 1009.2
20260507231623 11 22 0.0 3.2 0.00 0.00 0.00 41 1009.1
20260507231121 11 346 1.6 3.2 0.00 0.00 0.00 40 1009.0
20260507230617 11 63 3.2 11.3 0.00 0.00 0.00 40 1009.1
20260507230114 11 11 1.6 6.4 0.00 0.00 0.00 40 1009.0
20260507225608 11 76 4.8 16.1 0.00 0.00 0.00 39 1009.0
20260507225105 11 20 0.0 4.8 0.00 0.00 0.00 40 1009.1
20260507224600 11 21 0.0 1.6 0.00 0.00 0.00 40 1008.9
20260507224057 11 38 3.2 12.9 0.00 0.00 0.00 40 1009.1
20260507223553 12 39 1.6 3.2 0.00 0.00 0.00 38 1009.0
20260507223051 11 21 0.0 0.0 0.00 0.00 0.00 41 1009.0
20260507222548 11 71 3.2 3.2 0.00 0.00 0.00 41 1009.2
20260507222044 11 149 3.2 4.8 0.00 0.00 0.00 41 1009.1
20260507221540 11 29 1.6 4.8 0.00 0.00 0.00 41 1009.2
20260507221037 11 354 1.6 4.8 0.00 0.00 0.00 40 1009.1
20260507220534 11 222 3.2 4.8 0.00 0.00 0.00 40 1009.1
20260507220032 11 242 1.6 4.8 0.00 0.00 0.00 40 1009.0
20260507215528 11 36 3.2 3.2 0.00 0.00 0.00 39 1009.2
20260507215026 11 155 3.2 3.2 0.00 0.00 0.00 39 1009.0
20260507214523 11 80 3.2 4.8 0.00 0.00 0.00 40 1009.1
20260507214019 11 123 3.2 12.9 0.00 0.00 0.00 40 1009.2
20260507213515 11 40 3.2 4.8 0.00 0.00 0.00 40 1009.0
20260507213013 11 185 1.6 9.7 0.00 0.00 0.00 41 1009.0
20260507212508 10 61 1.6 6.4 0.00 0.00 0.00 41 1008.9
20260507212005 11 129 9.7 14.5 0.00 0.00 0.00 40 1008.8
20260507211502 10 92 4.8 4.8 0.00 0.00 0.00 40 1008.9
20260507210958 11 44 3.2 9.7 0.00 0.00 0.00 41 1008.8
20260507210455 11 152 4.8 11.3 0.00 0.00 0.00 39 1008.8
20260507205952 12 28 8.0 14.5 0.00 0.00 0.00 37 1008.8
20260507205449 12 320 3.2 6.4 0.00 0.00 0.00 38 1008.8
20260507204945 12 113 4.8 16.1 0.00 0.00 0.00 38 1008.8
20260507204441 12 71 1.6 3.2 0.00 0.00 0.00 38 1008.7
20260507203939 12 76 9.7 16.1 0.00 0.00 0.00 38 1008.7
20260507203437 12 86 8.0 11.3 0.00 0.00 0.00 37 1008.8
20260507202933 12 84 8.0 14.5 0.00 0.00 0.00 36 1008.5
20260507202430 12 165 4.8 6.4 0.00 0.00 0.00 36 1008.6
20260507201926 12 74 3.2 6.4 0.00 0.00 0.00 39 1008.7
20260507201421 12 25 3.2 3.2 0.00 0.00 0.00 39 1008.7
20260507200919 12 111 6.4 9.7 0.00 0.00 0.00 39 1008.7
20260507200414 12 34 3.2 4.8 0.00 0.00 0.00 40 1008.5
20260507195910 12 34 3.2 4.8 0.00 0.00 0.00 40 1008.6
20260507195408 12 236 6.4 9.7 0.00 0.00 0.00 40 1008.7
20260507194904 12 20 3.2 4.8 0.00 0.00 0.00 40 1008.6
20260507194401 12 31 1.6 4.8 0.00 0.00 0.00 37 1008.6
20260507193857 12 22 3.2 4.8 0.00 0.00 0.00 36 1008.5
20260507193355 12 51 1.6 3.2 0.00 0.00 0.00 38 1008.6
20260507192851 12 342 9.7 16.1 0.00 0.00 0.00 38 1008.8
20260507192347 13 32 1.6 11.3 0.00 0.00 0.00 37 1008.7
20260507191844 12 55 3.2 6.4 0.00 0.00 0.00 39 1008.6
20260507191340 12 65 6.4 11.3 0.00 0.00 0.00 39 1008.9
20260507190837 11 50 1.6 9.7 0.00 0.00 0.00 39 1008.7
20260507190335 11 137 9.7 16.1 0.00 0.00 0.00 39 1008.7
20260507185834 11 45 6.4 12.9 0.00 0.00 0.00 42 1008.9
20260507185330 11 340 6.4 11.3 0.00 0.00 0.00 42 1008.8
20260507184827 11 129 8.0 16.1 0.00 0.00 0.00 41 1008.7
20260507184326 11 6 1.6 6.4 0.00 0.00 0.00 39 1008.7
20260507183822 11 27 3.2 12.9 0.00 0.00 0.00 39 1008.7
20260507183319 11 64 8.0 14.5 0.00 0.00 0.00 38 1008.6
20260507182817 10 124 3.2 11.3 0.00 0.00 0.00 39 1008.8
20260507182312 11 222 4.8 9.7 0.00 0.00 0.00 38 1008.6
20260507181808 11 50 4.8 9.7 0.00 0.00 0.00 37 1008.6
20260507181304 11 305 6.4 11.3 0.00 0.00 0.00 40 1008.4
20260507180801 10 131 11.3 14.5 0.00 0.00 0.00 40 1008.5
20260507180259 10 131 11.3 14.5 0.00 0.00 0.00 40 1008.6
20260507175754 11 35 9.7 16.1 0.00 0.00 0.00 39 1008.4
20260507175251 11 338 8.0 11.3 0.00 0.00 0.00 39 1008.3
20260507174748 11 109 8.0 12.9 0.00 0.00 0.00 40 1008.6
20260507174246 11 340 4.8 6.4 0.00 0.00 0.00 40 1008.4
20260507173744 11 147 11.3 20.9 0.00 0.00 0.00 39 1008.4
20260507173241 11 40 3.2 6.4 0.00 0.00 0.00 41 1008.4
20260507172737 11 68 9.7 12.9 0.00 0.00 0.00 40 1008.7
20260507172234 12 131 4.8 16.1 0.00 0.00 0.00 38 1008.5
20260507171734 12 131 4.8 16.1 0.00 0.00 0.00 38 1008.3
20260507171232 12 62 1.6 3.2 0.00 0.00 0.00 38 1008.6
20260507170729 11 13 8.0 12.9 0.00 0.00 0.00 38 1008.7
20260507170225 11 72 4.8 16.1 0.00 0.00 0.00 40 1008.6
20260507165721 11 94 3.2 9.7 0.00 0.00 0.00 40 1008.6
20260507165217 11 93 3.2 6.4 0.00 0.00 0.00 39 1008.7
20260507164713 11 85 6.4 16.1 0.00 0.00 0.00 40 1008.7
20260507164211 11 140 12.9 17.7 0.00 0.00 0.00 39 1008.5
20260507163708 11 172 6.4 11.3 0.00 0.00 0.00 38 1008.6
20260507163206 11 156 14.5 17.7 0.00 0.00 0.00 38 1008.6
20260507162701 11 74 8.0 12.9 0.00 0.00 0.00 41 1008.6
20260507162157 11 103 9.7 16.1 0.00 0.00 0.00 39 1008.8
20260507161654 10 195 4.8 6.4 0.00 0.00 0.00 38 1008.8
20260507161150 11 68 8.0 12.9 0.00 0.00 0.00 38 1008.8
20260507160647 11 276 4.8 9.7 0.00 0.00 0.00 39 1008.7
20260507160144 10 51 6.4 12.9 0.00 0.00 0.00 43 1008.8
20260507155639 10 161 9.7 22.5 0.00 0.00 0.00 45 1008.8
20260507155136 10 97 6.4 17.7 0.00 0.00 0.00 46 1008.8
20260507154633 11 70 4.8 14.5 0.00 0.00 0.00 46 1009.1
20260507154130 10 17 4.8 11.3 0.00 0.00 0.00 48 1008.8
20260507153626 10 48 8.0 16.1 0.00 0.00 0.00 49 1008.8
20260507153123 10 25 3.2 11.3 0.00 0.00 0.00 49 1008.8
20260507152619 10 53 4.8 9.7 0.00 0.00 0.00 48 1008.9
20260507152115 10 103 9.7 14.5 0.00 0.00 0.00 50 1008.8
20260507151612 10 85 6.4 11.3 0.00 0.00 0.00 50 1008.7
20260507151109 10 267 6.4 17.7 0.00 0.00 0.00 51 1008.9
20260507150606 10 95 8.0 12.9 0.00 0.00 0.00 51 1008.8
20260507145557 10 90 4.8 16.1 0.00 0.00 0.00 51 1008.6
20260507145056 9 44 4.8 9.7 0.00 0.00 0.00 51 1008.9
20260507144552 9 304 8.0 12.9 0.00 0.00 0.00 52 1008.8
20260507144050 9 350 4.8 17.7 0.00 0.00 0.00 52 1008.9
20260507143546 9 137 6.4 11.3 0.00 0.00 0.00 52 1008.9
20260507143044 9 336 1.6 3.2 0.00 0.00 0.00 52 1009.0
20260507142538 9 335 3.2 9.7 0.00 0.00 0.00 53 1008.8
20260507142036 9 244 1.6 3.2 0.00 0.00 0.00 53 1008.8
20260507141532 9 342 3.2 4.8 0.00 0.00 0.00 53 1008.9
20260507141029 8 106 3.2 6.4 0.00 0.00 0.00 54 1008.9
20260507140526 8 47 3.2 14.5 0.00 0.00 0.00 55 1009.0
20260507140023 8 10 6.4 16.1 0.00 0.00 0.00 54 1008.9
20260507135520 8 3 3.2 6.4 0.00 0.00 0.00 55 1008.9
20260507135017 8 43 1.6 4.8 0.00 0.00 0.00 55 1009.1
20260507134514 8 26 0.0 6.4 0.00 0.00 0.00 54 1008.9
20260507134009 8 28 6.4 16.1 0.00 0.00 0.00 55 1008.9
20260507133505 8 65 3.2 11.3 0.00 0.00 0.00 55 1008.9
20260507133004 8 261 4.8 16.1 0.00 0.00 0.00 55 1008.9
20260507132500 8 352 1.6 6.4 0.00 0.00 0.00 56 1009.0
20260507131956 8 43 6.4 12.9 0.00 0.00 0.00 56 1009.1
20260507131454 8 269 3.2 12.9 0.00 0.00 0.00 56 1009.1
20260507130950 8 6 1.6 11.3 0.00 0.00 0.00 56 1009.0
20260507130447 7 55 6.4 12.9 0.00 0.00 0.00 57 1008.9
20260507125946 7 67 3.2 9.7 0.00 0.00 0.00 58 1009.2
20260507125444 8 135 6.4 6.4 0.00 0.00 0.00 57 1009.0
20260507124941 7 7 1.6 4.8 0.00 0.00 0.00 58 1009.1
20260507124437 7 10 4.8 16.1 0.00 0.00 0.00 58 1009.2
20260507123936 7 17 1.6 6.4 0.00 0.00 0.00 59 1009.2
20260507123433 7 53 6.4 6.4 0.00 0.00 0.00 58 1009.0
20260507122929 7 202 4.8 12.9 0.00 0.00 0.00 59 1008.7
20260507122424 7 3 0.0 0.0 0.00 0.00 0.00 59 1009.1
20260507121921 7 323 1.6 3.2 0.00 0.00 0.00 60 1009.1
20260507121416 6 95 9.7 14.5 0.00 0.00 0.00 61 1009.1
20260507120913 6 95 9.7 14.5 0.00 0.00 0.00 61 1009.1
20260507120409 6 95 9.7 14.5 0.00 0.00 0.00 61 1009.2
20260507115906 6 64 9.7 14.5 0.00 0.00 0.00 60 1009.2
20260507115402 6 338 4.8 6.4 0.00 0.00 0.00 63 1009.0
20260507114857 6 130 3.2 11.3 0.00 0.00 0.00 63 1009.1
20260507114354 6 354 3.2 11.3 0.00 0.00 0.00 64 1009.1
20260507113852 6 321 4.8 9.7 0.00 0.00 0.00 64 1009.1
20260507113349 6 132 1.6 11.3 0.00 0.00 0.00 65 1009.0
20260507112846 6 35 3.2 16.1 0.00 0.00 0.00 64 1009.2
20260507112343 6 20 3.2 11.3 0.00 0.00 0.00 64 1009.0
20260507111841 6 66 3.2 6.4 0.00 0.00 0.00 65 1009.0
20260507111338 6 305 6.4 9.7 0.00 0.00 0.00 65 1009.0
20260507110833 6 14 1.6 12.9 0.00 0.00 0.00 66 1008.9
20260507110330 7 254 6.4 6.4 0.00 0.00 0.00 77 1008.8
20260507105827 7 254 6.4 6.4 0.00 0.00 0.00 77 1008.7
20260507105323 7 0 1.6 11.3 0.00 0.00 0.00 78 1008.3
20260507104820 7 216 1.6 1.6 0.00 0.00 0.00 79 1008.4
20260507104317 7 356 3.2 3.2 0.00 0.00 0.00 80 1008.4
20260507103813 7 159 4.8 6.4 0.00 0.00 0.00 81 1008.2
20260507103309 7 358 3.2 6.4 0.00 0.00 0.00 82 1008.4
20260507102806 7 353 0.0 6.4 0.00 0.00 0.00 83 1008.2
20260507102306 7 344 0.0 4.8 0.00 0.00 0.00 84 1008.2
20260507101759 7 136 6.4 9.7 0.00 0.00 0.00 84 1008.2
20260507101254 7 57 0.0 6.4 0.00 0.00 0.00 85 1008.6
20260507100751 7 37 0.0 4.8 0.00 0.00 0.00 85 1008.5
20260507100250 7 11 0.0 4.8 0.00 0.00 0.00 86 1008.3
20260507095747 7 63 1.6 3.2 0.00 0.00 0.00 85 1008.3
20260507095243 7 1 0.0 6.4 0.00 0.00 0.00 84 1008.7
20260507094741 7 335 1.6 3.2 0.00 0.00 0.00 83 1008.5
20260507094238 7 184 6.4 14.5 0.00 0.00 0.00 83 1008.4
20260507093734 7 287 3.2 6.4 0.00 0.00 0.00 83 1008.5
20260507093233 7 232 4.8 6.4 0.00 0.00 0.00 84 1008.4
20260507092730 7 10 1.6 3.2 0.00 0.00 0.00 84 1008.3
20260507092226 7 58 4.8 9.7 0.00 0.00 0.00 85 1008.5
20260507091723 7 344 1.6 4.8 0.00 0.00 0.00 85 1008.4
20260507091219 7 22 0.0 3.2 0.00 0.00 0.00 85 1008.3
20260507090719 7 359 0.0 9.7 0.00 0.00 0.00 86 1008.4
20260507090216 7 32 1.6 4.8 0.00 0.00 0.00 86 1008.2
20260507085713 7 347 1.6 3.2 0.00 0.00 0.00 86 1008.3
20260507085210 7 353 0.0 1.6 0.00 0.00 0.00 86 1008.0
20260507084707 7 10 1.6 3.2 0.00 0.00 0.00 86 1008.2
20260507084204 7 14 0.0 4.8 0.00 0.00 0.00 87 1008.2
20260507083701 7 345 1.6 1.6 0.00 0.00 0.00 87 1008.2
20260507083157 7 357 1.6 3.2 0.00 0.00 0.00 87 1008.2
20260507082653 7 12 0.0 4.8 0.00 0.00 0.00 87 1008.3
20260507082149 7 14 0.0 3.2 0.00 0.00 0.00 87 1008.4
20260507081646 7 341 1.6 4.8 0.00 0.00 0.00 87 1008.4
20260507081143 7 341 1.6 6.4 0.00 0.00 0.00 87 1008.5
20260507080639 7 5 0.0 3.2 0.00 0.00 0.00 87 1008.7
20260507080137 7 28 1.6 4.8 0.00 0.00 0.00 87 1008.8
20260507075637 7 32 0.0 0.0 0.00 0.00 0.00 87 1008.7
20260507075133 7 347 4.8 9.7 0.00 0.00 0.00 87 1008.5
20260507074630 7 14 1.6 3.2 0.00 0.00 0.00 86 1008.5
20260507074128 7 1 1.6 1.6 0.00 0.00 0.00 86 1008.7
20260507073624 7 165 0.0 6.4 0.00 0.00 0.00 86 1008.6
20260507073121 7 2 0.0 6.4 0.00 0.00 0.00 86 1008.7
20260507072619 7 314 1.6 1.6 0.00 0.00 0.00 85 1008.6
20260507072115 7 28 0.0 1.6 0.00 0.00 0.00 85 1008.7
20260507071613 7 305 1.6 1.6 0.00 0.00 0.00 84 1008.8
20260507071109 7 10 1.6 1.6 0.00 0.00 0.00 84 1008.5
20260507070607 7 19 1.6 3.2 0.00 0.00 0.00 83 1008.6
20260507070104 7 23 1.6 3.2 0.00 0.00 0.00 83 1008.6
20260507065600 7 13 0.0 4.8 0.00 0.00 0.00 83 1008.7
20260507065057 7 83 0.0 6.4 0.00 0.00 0.00 82 1008.7
20260507064555 7 340 1.6 4.8 0.00 0.00 0.00 83 1008.9
20260507064053 7 357 0.0 4.8 0.00 0.00 0.00 83 1008.7
20260507063550 7 90 1.6 6.4 0.00 0.00 0.00 83 1008.8
20260507063047 7 38 1.6 3.2 0.00 0.00 0.00 83 1008.7
20260507062543 7 24 4.8 11.3 0.00 0.00 0.00 83 1008.7
20260507062041 7 4 1.6 1.6 0.00 0.00 0.00 83 1008.8
20260507061539 7 4 0.0 1.6 0.00 0.00 0.00 83 1008.9
20260507061037 7 66 0.0 1.6 0.00 0.00 0.00 84 1008.7
20260507060534 7 3 0.0 1.6 0.00 0.00 0.00 84 1009.0
20260507060031 7 8 0.0 6.4 0.00 0.00 0.00 84 1008.9
20260507055525 7 355 0.0 3.2 0.00 0.00 0.00 84 1008.8
20260507055022 7 243 1.6 6.4 0.00 0.00 0.00 85 1009.0
20260507054518 7 13 3.2 4.8 0.00 0.00 0.00 85 1009.2
20260507054015 7 5 0.0 1.6 0.00 0.00 0.00 85 1009.2
20260507053513 7 6 0.0 3.2 0.00 0.00 0.00 85 1009.2
20260507053011 7 10 0.0 1.6 0.00 0.00 0.00 86 1009.2
20260507052509 7 0 1.6 3.2 0.00 0.00 0.00 86 1009.2
20260507052005 7 9 0.0 6.4 0.00 0.00 0.00 86 1009.3
20260507051503 7 26 0.0 0.0 0.00 0.00 0.00 86 1009.4
20260507050959 7 12 1.6 4.8 0.00 0.00 0.00 86 1009.5
20260507050456 7 11 0.0 1.6 0.00 0.00 0.00 85 1009.4
20260507045953 7 9 0.0 1.6 0.00 0.00 0.00 85 1009.6
20260507045449 7 12 0.0 1.6 0.00 0.00 0.00 85 1009.8
20260507044947 7 17 0.0 1.6 0.00 0.00 0.00 85 1009.7
20260507044443 7 111 0.0 1.6 0.00 0.00 0.00 85 1009.6
20260507043939 7 47 1.6 3.2 0.00 0.00 0.00 85 1009.9
20260507043436 7 332 1.6 1.6 0.00 0.00 0.00 85 1009.9
20260507042932 7 166 1.6 3.2 0.00 0.00 0.00 85 1009.8
20260507042429 7 359 0.0 4.8 0.00 0.00 0.00 84 1010.0
20260507041925 7 41 1.6 4.8 0.00 0.00 0.00 84 1010.0
20260507041422 7 10 0.0 1.6 0.00 0.00 0.00 85 1009.9
20260507040919 7 22 0.0 3.2 0.00 0.00 0.00 85 1010.1
20260507040415 7 16 0.0 1.6 0.00 0.00 0.00 84 1010.1
20260507035911 7 2 0.0 1.6 0.00 1.12 1.12 84 1010.1
20260507035407 7 19 3.2 4.8 0.00 1.12 1.12 84 1010.0
20260507034904 7 4 0.0 6.4 0.00 1.12 1.12 84 1010.0
20260507034401 7 34 1.6 3.2 0.00 1.12 1.12 84 1010.3
20260507033859 7 11 1.6 3.2 0.00 1.12 1.12 85 1010.2
20260507033357 7 19 1.6 3.2 0.00 1.12 1.12 85 1010.2
20260507032853 7 1 0.0 1.6 0.00 1.12 1.12 85 1010.3
20260507032350 7 140 1.6 4.8 0.00 1.12 1.12 85 1010.3
20260507031846 7 25 0.0 0.0 0.00 1.12 1.12 84 1010.3
20260507031343 7 26 0.0 0.0 0.00 1.12 1.12 82 1010.3
20260507030840 7 26 0.0 0.0 0.00 1.12 1.12 82 1010.4
20260507030337 7 26 0.0 0.0 0.00 1.12 1.12 82 1010.4
20260507025834 7 26 0.0 0.0 0.00 1.12 1.12 82 1010.4
20260507025332 7 26 0.0 0.0 0.00 1.12 1.12 82 1010.4
20260507024829 7 26 0.0 0.0 0.00 1.12 1.12 82 1010.4
20260507024326 7 26 0.0 0.0 0.00 1.12 1.12 82 1010.4
20260507023822 7 5 0.0 0.0 0.00 1.12 1.12 81 1010.4
20260507023319 7 9 0.0 0.0 0.00 1.12 1.12 81 1010.5
20260507022816 7 4 0.0 0.0 0.00 1.12 1.12 80 1010.4
20260507022312 7 3 0.0 0.0 0.00 1.12 1.12 80 1010.6
20260507021809 7 4 0.0 0.0 0.00 1.12 1.12 80 1010.5
20260507021304 7 356 0.0 0.0 0.00 1.12 1.12 80 1010.6
20260507020802 7 6 0.0 0.0 0.00 1.12 1.12 79 1010.8
20260507020259 7 18 1.6 3.2 0.00 1.12 1.12 78 1010.8
20260507015756 7 18 1.6 3.2 0.00 1.12 1.12 78 1010.9
20260507015253 7 6 0.0 0.0 0.00 1.12 1.12 77 1010.8
20260507014750 7 6 0.0 0.0 0.00 1.12 1.12 77 1010.9
20260507014246 7 45 1.6 1.6 0.00 1.12 1.12 77 1010.6
20260507013743 7 45 1.6 1.6 0.00 1.12 1.12 77 1011.1
20260507013241 7 336 0.0 1.6 0.00 1.12 1.12 77 1011.0
20260507012738 7 336 0.0 1.6 0.00 1.12 1.12 77 1011.0
20260507012233 7 358 0.0 1.6 0.00 1.12 1.12 77 1011.1
20260507011731 7 358 0.0 1.6 0.00 1.12 1.12 77 1011.1
20260507011228 7 9 0.0 0.0 0.00 1.12 1.12 77 1011.0
20260507010727 7 17 0.0 1.6 0.00 1.12 1.12 77 1010.8
20260507010223 7 9 0.0 0.0 0.00 1.12 1.12 77 1010.8
20260507005721 8 5 0.0 3.2 0.00 1.12 1.12 77 1010.9